Probability
0 0 0 0 0 0 0 0 0 0 1 4 4 3 2 3 6 7 5 6 9 8 5 4 5 5 4 4 3 1 0 0 0 0 0 0 0 0 0 0 0 0 0
0 0 0 0 0 0 0 0 0 0 0 2 5 5 5 5 6 7 5 5 8 8 4 3 4 4 4 4 3 2 1 0 0 0 0 0 0 0 0 0 0 0 0
0 0 0 0 0 0 0 0 0 0 1 2 4 6 5 5 4 4 4 3 5 5 3 1 2 3 4 3 3 2 1 0 0 0 0 0 0 0 0 0 0 0 0
0 0 0 0 0 0 0 1 0 0 1 2 3 3 3 2 1 1 1 1 3 3 1 0 1 2 3 3 2 2 2 1 0 0 0 0 0 0 0 0 0 0 0
0 0 0 0 0 0 0 0 0 0 1 1 2 1 0 0 0 0 0 1 2 2 1 0 0 1 2 2 1 1 2 2 0 0 0 0 0 0 0 0 0 0 0
0 0 0 0 0 0 0 0 0 0 0 0 0 0 0 0 0 0 0 1 2 2 1 0 0 0 1 1 1 2 2 1 0 0 0 0 0 0 0 0 0 0 0
0 0 0 0 0 0 0 0 0 0 0 0 0 0 0 0 0 0 0 1 2 2 1 0 0 0 0 0 1 2 2 1 0 0 0 0 0 0 0 0 0 0 0
0 0 0 0 0 0 0 0 0 0 0 0 0 0 0 0 0 0 0 1 2 2 1 0 0 0 0 0 1 2 2 1 0 0 0 0 0 0 0 0 0 0 0
0 0 0 0 0 0 0 0 0 0 0 0 0 0 0 0 0 0 0 1 2 2 1 0 0 0 0 0 0 1 1 0 0 0 0 0 0 0 0 0 0 0 0
0 0 0 0 0 0 0 0 0 0 0 0 0 0 1 0 0 0 0 1 2 3 1 0 0 0 0 0 0 0 0 0 0 0 0 0 0 0 0 0 0 0 0
0 0 0 0 0 0 0 0 0 0 0 0 0 0 0 0 0 0 0 1 2 3 2 1 0 0 0 0 0 0 0 0 0 0 0 0 0 0 0 0 0 0 1
0 0 0 0 0 0 0 0 0 0 0 0 0 0 0 0 0 0 0 0 1 2 2 1 0 0 0 0 0 0 0 0 0 0 0 0 0 0 0 0 0 0 1
0 0 0 0 0 0 0 0 0 0 0 0 0 0 0 0 0 0 0 0 0 1 1 0 0 0 0 0 0 0 0 0 0 0 0 0 0 0 0 0 0 0 1
0 0 0 0 0 0 0 0 0 0 0 0 0 0 0 0 0 0 0 0 0 0 0 0 0 0 0 0 0 0 0 0 0 0 0 0 0 0 0 0 0 0 0
0 0 0 0 0 0 0 0 0 0 0 0 0 0 0 0 0 0 0 0 0 0 0 0 0 0 0 0 0 0 0 0 0 0 0 0 0 0 0 0 0 0 0
0 0 0 0 0 0 0 0 0 0 0 0 0 0 0 0 0 0 0 0 0 0 0 0 0 0 0 0 0 0 0 0 0 0 0 0 0 0 0 0 0 0 0
0 0 0 0 0 0 0 0 0 0 0 0 0 0 0 0 0 0 0 0 0 0 0 0 0 0 0 0 0 0 0 0 0 0 0 0 0 0 0 0 0 0 0
0 0 0 0 0 0 0 0 0 0 0 0 0 0 0 0 0 0 0 0 0 0 0 0 0 0 0 0 0 0 0 0 0 0 0 0 0 0 0 0 0 0 0
0 0 0 0 0 0 0 0 0 0 0 0 0 0 0 0 0 0 0 0 0 0 0 0 0 0 0 0 0 0 0 0 0 0 0 0 0 0 0 0 0 0 0
0 0 0 0 0 0 0 0 0 0 0 0 0 0 0 0 0 0 0 0 0 0 0 0 0 0 0 0 0 0 0 0 0 0 0 0 0 0 0 0 0 0 0
0 0 0 0 0 0 0 0 0 0 0 0 0 0 0 0 0 0 0 0 0 0 0 0 0 0 0 0 0 0 0 0 0 0 0 0 0 0 0 0 0 0 0
0 0 0 0 0 0 0 0 0 0 0 0 0 0 0 0 0 0 0 0 0 0 0 0 0 0 0 0 0 0 0 0 0 0 0 0 0 0 0 0 0 0 0
0 0 0 0 0 0 0 0 0 0 0 0 0 0 0 0 0 0 0 0 0 0 0 0 0 0 0 0 0 0 0 0 0 0 0 0 0 0 0 0 0 0 0
0 0 0 0 0 0 0 0 0 0 0 0 0 0 0 0 0 0 0 0 0 0 0 0 0 0 0 0 0 0 0 0 0 0 0 0 0 0 0 0 0 0 0
0 0 0 0 0 0 0 0 0 0 0 0 0 0 0 0 0 0 0 0 0 0 0 0 0 0 0 0 0 0 0 0 0 0 0 0 0 0 0 0 0 0 0
0 0 0 0 0 0 0 0 0 0 0 0 0 0 0 0 0 0 0 0 0 0 0 0 0 0 0 0 0 0 0 0 0 0 0 0 0 0 0 0 0 0 0
Wind_Speed
5 2 2 3 3 3 4 6 6 5 5 5 5 5 5 5 5 5 7 9 9 10 8 7 8 8 7 8 7 5 5 3 3 2 0 1 2 3 4 4 4 4 5
3 2 2 1 2 3 4 5 5 5 5 6 5 4 4 4 4 4 6 8 9 10 8 9 8 8 7 8 7 5 4 3 4 4 3 1 2 2 3 3 4 4 3
2 3 2 0 1 1 2 3 5 4 4 5 4 3 3 3 3 4 5 7 8 8 8 9 8 8 8 8 8 8 7 5 4 4 5 4 4 2 2 3 3 4 3
3 1 1 2 1 0 2 3 4 5 4 4 5 5 4 4 4 3 4 6 7 7 7 8 8 8 7 8 8 7 6 7 6 4 3 3 3 3 2 2 2 3 4
3 2 2 2 2 2 2 2 2 3 3 3 4 5 4 3 2 2 4 5 5 6 6 7 7 7 6 7 7 7 6 6 6 4 3 3 2 2 3 3 3 2 3
7 6 5 4 3 3 3 2 2 2 3 4 4 4 4 4 4 2 3 4 4 4 6 6 6 6 6 7 8 8 8 7 6 4 4 4 4 4 3 4 3 3 3
9 8 7 6 5 5 4 3 3 2 2 3 3 3 4 4 4 3 3 4 3 3 4 5 5 5 6 7 6 7 7 8 8 6 5 4 4 3 3 3 3 3 2
9 10 9 7 7 6 6 5 4 3 3 3 2 2 2 2 2 2 2 3 3 3 3 4 4 5 6 7 6 6 6 6 7 7 6 4 4 3 3 4 3 3 3
9 9 9 9 8 7 6 6 5 5 4 4 3 3 2 2 2 2 2 2 2 2 3 3 4 4 4 6 6 5 6 6 7 7 7 5 4 4 4 4 4 5 5
9 9 9 9 8 7 7 7 8 7 5 5 4 3 3 2 2 2 2 1 1 2 2 3 2 2 3 4 5 4 5 6 6 5 6 6 4 4 4 4 4 4 4
8 8 9 9 9 9 9 9 8 8 7 6 5 5 4 4 3 2 1 1 0 1 2 2 3 3 3 3 3 4 5 6 5 5 7 7 5 4 4 4 4 4 4
7 8 8 9 10 10 10 9 9 8 8 6 6 5 5 4 4 2 1 1 0 1 2 2 2 3 3 3 3 4 4 6 6 6 6 6 4 5 4 4 5 5 4
7 8 8 9 9 9 9 9 8 8 7 6 6 6 6 5 4 3 2 1 1 0 1 1 2 3 3 3 3 4 4 4 5 5 6 6 5 6 5 5 5 4 4
7 8 8 8 8 8 8 8 8 7 7 7 6 5 5 4 4 3 3 2 2 1 1 1 2 2 2 3 3 3 4 4 4 4 5 6 7 7 7 6 6 5 4
6 6 7 7 7 7 7 7 7 7 6 6 6 5 5 4 4 4 4 3 3 2 1 1 2 2 2 2 3 3 4 4 4 4 4 5 7 8 8 6 6 6 4
4 5 6 6 6 6 6 7 7 6 6 6 6 6 5 5 5 5 4 4 4 3 2 2 2 2 2 3 4 4 3 3 4 4 4 4 4 6 8 9 9 8 7
2 3 4 4 4 5 5 6 6 6 6 6 5 5 5 6 6 5 5 5 4 4 3 3 2 2 3 4 4 3 3 3 3 3 3 2 3 4 3 4 5 6 8
1 2 3 3 4 4 5 5 5 6 6 6 6 6 5 5 5 5 5 5 4 4 3 3 4 3 4 5 5 5 2 2 3 3 3 3 3 3 3 2 2 2 3
1 1 2 2 3 4 4 5 6 6 6 7 7 7 6 5 5 5 5 4 4 4 3 3 3 3 4 5 6 6 2 2 2 2 2 3 3 4 4 4 3 2 2
0 1 1 2 3 4 4 4 5 6 6 6 6 6 6 5 5 5 5 4 3 3 4 3 3 3 3 5 6 5 1 1 2 2 2 3 3 4 4 3 4 4 3
0 1 1 1 2 3 4 4 5 5 6 6 5 5 5 5 5 4 4 4 4 4 3 3 3 3 3 4 5 6 2 1 1 2 2 2 3 4 4 3 3 5 4
1 1 1 2 2 2 3 4 4 5 5 5 5 5 5 5 4 4 4 3 3 3 3 3 4 3 3 4 4 6 5 3 1 2 1 1 2 3 3 2 3 5 4
0 1 1 2 2 2 2 3 5 5 5 5 5 5 5 4 4 4 4 3 3 2 2 2 3 3 3 3 6 6 5 5 3 1 2 2 2 1 1 1 2 3 2
1 1 1 2 3 3 3 3 4 4 5 5 5 5 4 5 4 3 3 3 3 3 3 3 3 3 3 2 2 2 2 3 3 2 2 2 1 1 0 1 1 1 2
1 0 1 2 3 3 4 4 4 4 5 5 5 5 4 4 4 4 3 3 3 3 4 3 3 3 3 4 5 3 2 2 2 2 1 1 1 1 1 1 1 1 1
1 1 2 2 3 3 3 4 4 4 4 5 5 4 4 4 4 4 5 5 5 7 7 6 5 4 6 7 6 5 4 4 4 2 0 1 0 0 1 0 0 0 1
Wind_Direction
263 267 252 225 194 189 186 175 168 182 179 173 174 179 184 187 182 188 200 191 179 176 177 176 176 176 181 186 180 176 178 184 165 139 205 297 252 230 224 210 204 207 204
322 309 285 203 156 193 186 168 169 179 187 179 170 173 175 186 178 180 195 193 180 177 181 181 180 181 179 183 183 172 175 184 171 158 155 236 293 264 233 212 206 211 206
332 310 300 93 117 184 174 172 179 181 181 168 155 162 164 165 169 179 189 192 179 176 181 184 182 184 182 186 189 183 183 188 194 181 171 175 215 249 264 226 215 208 209
350 344 55 74 83 109 133 148 160 163 165 163 161 171 183 176 185 182 185 188 180 177 180 183 186 187 187 188 191 189 189 183 192 198 205 197 176 183 231 253 225 214 217
12 34 51 65 66 75 118 131 139 145 155 156 163 175 182 162 152 154 177 188 179 179 181 181 185 189 190 191 190 191 192 192 196 195 189 197 209 204 199 236 231 230 229
23 28 30 45 49 52 71 87 114 121 141 151 158 169 166 158 152 161 191 188 181 179 184 182 184 191 194 194 194 194 196 199 200 205 199 189 190 199 199 224 232 236 237
22 23 29 35 36 38 42 53 81 86 104 127 139 153 164 158 160 171 179 175 173 181 190 188 189 198 202 198 195 196 199 198 197 201 212 212 215 199 192 201 226 243 245
22 26 28 31 35 38 43 53 69 75 79 89 105 125 146 134 150 170 167 164 171 183 190 192 196 205 206 201 197 202 206 204 204 209 210 215 219 206 198 194 199 233 245
22 23 25 30 34 36 37 48 61 66 64 67 75 75 79 103 133 146 153 161 163 178 185 199 200 205 204 200 198 206 209 207 210 211 212 218 220 213 212 202 194 200 228
24 24 24 25 29 32 32 38 49 53 53 53 54 58 59 65 75 97 112 146 167 179 184 205 203 202 206 205 204 210 212 211 218 214 214 220 221 217 211 209 215 211 215
25 26 28 26 30 32 33 36 37 39 42 43 49 50 44 48 51 61 79 121 172 198 193 205 204 205 214 211 209 217 211 213 222 221 217 223 215 217 217 210 212 214 206
27 28 30 30 30 29 27 30 30 29 28 30 39 40 34 37 40 48 49 47 234 217 201 200 203 212 220 219 217 226 223 218 220 221 219 225 218 219 217 216 220 220 210
28 27 28 28 27 25 23 24 23 22 20 24 31 32 26 24 18 23 21 22 344 288 210 195 219 228 229 226 226 228 233 232 228 225 224 225 215 224 221 218 222 223 216
28 25 22 20 20 19 19 18 17 17 19 25 29 29 18 10 7 11 13 8 359 334 271 243 249 246 247 243 241 242 244 244 242 236 230 226 222 224 221 219 219 212 208
28 25 19 13 14 14 13 12 12 10 14 26 29 24 16 14 15 16 14 10 5 354 335 302 294 289 266 255 260 256 253 247 247 246 243 240 234 231 228 221 212 202 205
22 15 15 11 8 7 4 4 4 3 9 20 19 11 11 14 17 14 12 13 8 4 358 348 318 300 294 288 278 273 256 248 247 251 252 247 239 237 235 227 219 206 204
12 5 4 1 355 354 358 358 354 356 6 11 10 7 6 9 9 8 10 7 3 3 355 346 336 324 311 314 312 298 270 258 255 249 246 255 245 242 228 227 222 221 218
351 344 344 346 344 352 358 354 356 1 4 4 1 0 3 4 358 358 2 357 351 352 350 342 339 337 333 336 333 327 294 264 261 257 247 239 238 229 209 193 202 228 230
271 301 314 331 345 354 354 360 2 1 4 2 356 350 351 354 352 350 346 339 338 340 343 338 337 335 331 339 343 344 314 290 282 271 255 240 238 230 214 191 191 211 223
358 333 341 3 0 346 353 7 1 360 355 347 341 338 340 342 338 334 334 331 333 329 330 330 327 320 318 327 337 340 322 307 304 301 273 246 242 235 228 209 190 196 202
323 12 22 1 332 337 356 358 353 346 333 331 333 335 334 331 328 330 333 330 329 332 329 327 326 319 312 316 325 330 323 276 282 286 287 269 246 244 235 235 212 200 183
16 19 6 333 328 340 353 344 333 326 330 333 333 333 332 330 331 330 327 323 324 325 320 325 328 329 322 320 321 328 328 322 284 273 281 274 260 255 235 227 203 185 170
325 340 332 324 330 333 339 327 318 327 333 332 329 326 326 324 321 319 318 318 317 307 304 308 313 320 325 325 332 335 336 336 329 299 292 287 273 278 235 195 180 156 147
240 312 333 318 315 319 320 313 319 327 328 323 320 320 321 322 322 320 313 308 307 303 301 303 304 309 314 314 314 321 338 346 341 322 293 288 299 341 311 184 136 111 155
259 279 276 286 298 312 318 324 327 330 326 320 316 318 318 314 314 315 309 302 289 288 296 291 290 294 294 297 311 319 318 318 305 327 344 8 28 37 28 48 77 112 137
253 290 286 288 294 301 307 315 322 325 320 318 316 314 316 316 318 320 322 327 318 321 322 314 308 302 303 308 314 320 321 320 312 326 301 283 278 223 202 196 223 171 171